Overview Statistics Trail Chart Weather Telemetry Raw packets
 

This is the latest recevied weather packets stored in our database for station/object DG4CB-13. If no packets are shown the sender has not sent any weather packets the latest 10 day(s).

<< 19 20 21 22 23 24 25 >>
Time Temp. Humidity Pressure Rain* Wind** Luminosity Snow
1788011400 24.44° C 45% 1011.8 hPa - - - -
1788010800 23.89° C 45% 1012.1 hPa - - - -
1788010214 23.89° C 46% 1012 hPa - - - -
1788009600 23.89° C 46% 1012 hPa - - - -
1788009000 23.33° C 46% 1012.2 hPa - - - -
1788008400 23.33° C 46% 1012.1 hPa - - - -
1788007801 23.33° C 45% 1012.1 hPa - - - -
1788007200 23.89° C 45% 1012 hPa - - - -
1788006600 24.44° C 44% 1012.1 hPa - - - -
1788006000 23.89° C 44% 1012.1 hPa - - - -
1788005400 24.44° C 45% 1012.2 hPa - - - -
1788004800 24.44° C 44% 1012.2 hPa - - - -
1788004200 23.89° C 45% 1012.2 hPa - - - -
1788003600 23.89° C 46% 1012.1 hPa - - - -
1788003000 23.89° C 46% 1012.3 hPa - - - -
1788002400 23.89° C 47% 1012.2 hPa - - - -
1788001800 23.33° C 47% 1012.4 hPa - - - -
1788001200 23.33° C 49% 1012.4 hPa - - - -
1788000600 23.33° C 50% 1012.6 hPa - - - -
1788000000 23.33° C 50% 1012.7 hPa - - - -
1787999400 22.22° C 54% 1012.7 hPa - - - -
1787998801 21.67° C 57% 1012.8 hPa - - - -
1787998200 21.67° C 57% 1013 hPa - - - -
1787997600 21.67° C 57% 1013.1 hPa - - - -
1787997000 21.67° C 57% 1013.1 hPa - - - -

* Rain since midnight (hover to see other rain measurements)
** Current wind speed in m/s (hover to see current wind gust speed)